Location: Newport
(44.6370°N, 124.0520°W)
Time: 21:08:24
(UTC-07:00)

Tiangong 1 - Pass Details

Date: 11 October 2017
Orbit: 292 x 319 km, 42.8° (Epoch: 22 October)

Event Time Altitude Azimuth Distance (km) Brightness Sun altitude
Rises 19:31:58 0° 267° (W) 2,046 7.1 -10.4°
Reaches altitude 10° 19:33:58 10° 263° (W) 1,210 5.1 -10.8°
Maximum altitude 19:36:38 55° 184° (S) 379 1.0 -11.2°
Enters shadow 19:38:12 21° 111° (ESE) 775 2.0 -11.5°
